Find Starlink 30838

NORAD ID: 58211 Int'l Des: 2023-170 Owner: SPXS Country: US Constellation: starlink operational
LEOCIRCULAR

リアルタイム位置

3D地球を読み込み中...

Starlink 30838について

説明を読み込み中...

次回通過

Passes for default location (London). Set your location on the main map for personalized predictions.

高度履歴

Loading altitude history...

軌道要素

1 58211U 23170F 26121.40472954 .00001808 00000-0 75182-4 0 9991
2 58211 43.0004 256.3387 0001579 273.8438 86.2233 15.27590777138366
Epoch: May 1, 2026 • Age: 7 hours

現在のステータス

高度 482.8 km
速度 7.63 km/s
衛星直下点 0.86°N, 37.4°W
打ち上げ日 Nov 4, 2023
運用期間 2.4 years
タイプ internet

技術仕様

分類 Payload
質量 730.00 kg
乾燥質量 700.00 kg
総質量 730.00 kg
長さ 0.30 m
直径 4.10 m
スパン 29.00 m
形状 Box + pan
製造者 SPXS
バスタイプ Starlink V2M
フェーズステータス In Orbit
所有者/国 SPXS/US

Most Searched